Minot, ND

3:51 AM CDT on March 25, 2017 (GMT -0500)
Minot International

Weather History for KMOT - September, 2013

Change the Weather History Date:

Tuesday, September 24, 2013

  Actual Average Record
Temperature  
Mean Temperature 60 °F 54 °F  
Max Temperature 72 °F 66 °F 92 °F (1917)
Min Temperature 48 °F 43 °F 23 °F (1922)
Degree Days  
Heating Degree Days 5 11  
Month to date heating degree days 82 174  
Since 1 July heating degree days 151 245  
Cooling Degree Days 0 0  
Month to date cooling degree days 50 30  
Year to date cooling degree days 421 441  
Growing Degree Days 10 (Base 50)    
Moisture  
Dew Point 43 °F    
Average Humidity 58    
Maximum Humidity 86    
Minimum Humidity 29    
Precipitation  
Precipitation 0.00 in 0.05 in 1.07 in (1977)
Month to date precipitation 1.79 1.18  
Year to date precipitation 21.97 14.62  
Sea Level Pressure  
Sea Level Pressure 29.85 in    
Wind  
Wind Speed 7 mph (SW)    
Max Wind Speed 14 mph    
Max Gust Speed 18 mph    
Visibility 10 miles    
Events      
T = Trace of Precipitation, MM = Missing Value Source: NWS Daily Summary

Daily Weather History Graph

Daily Weather History Graph

Search for Another Location

Airport or City:

Trip Planner

Search our weather history database for the weather conditions in past years. The results will help you decide how hot, cold, wet, or windy it might be!

Date:

Astronomy

Sep. 24, 2013 Rise Set
Actual Time 7:34 AM CDT 7:38 PM CDT
Civil Twilight 7:03 AM CDT 8:09 PM CDT
Nautical Twilight 6:27 AM CDT 8:45 PM CDT
Astronomical Twilight 5:49 AM CDT 9:23 PM CDT
Moon 10:33 PM CDT (9/24) 1:15 PM CDT (9/24)
Length of Visible Light 13h 05m
Length of Day
12h 03m
Waning Gibbous, 73% of the Moon is Illuminated
Sep 24
Waning Gibbous
Sep 26
Last Quarter
Oct 4
New
Oct 11
First Quarter
Oct 18
Full

Hourly Weather History & Observations

Time (CDT) Temp. Dew Point Humidity Pressure Visibility Wind Dir Wind Speed Gust Speed Precip Events Conditions
12:54 AM 55.0 °F 51.1 °F 86% 29.79 in 10.0 mi SSW 9.2 mph - N/A   Clear
1:54 AM 55.0 °F 50.0 °F 83% 29.80 in 10.0 mi SSW 11.5 mph - N/A   Clear
2:54 AM 53.1 °F 48.0 °F 83% 29.81 in 10.0 mi SW 10.4 mph - N/A   Clear
3:54 AM 52.0 °F 46.0 °F 80% 29.82 in 10.0 mi SW 10.4 mph - N/A   Clear
4:54 AM 51.1 °F 44.1 °F 77% 29.84 in 10.0 mi SW 11.5 mph - N/A   Clear
5:54 AM 50.0 °F 43.0 °F 77% 29.85 in 10.0 mi SW 11.5 mph - N/A   Clear
6:54 AM 48.9 °F 41.0 °F 74% 29.87 in 10.0 mi SW 10.4 mph - N/A   Clear
7:54 AM 48.9 °F 39.9 °F 71% 29.88 in 10.0 mi SW 13.8 mph - N/A   Clear
8:54 AM 52.0 °F 42.1 °F 69% 29.90 in 10.0 mi SW 9.2 mph - N/A   Clear
9:54 AM 55.9 °F 43.0 °F 62% 29.91 in 10.0 mi SW 9.2 mph - N/A   Clear
10:54 AM 61.0 °F 43.0 °F 52% 29.91 in 10.0 mi WSW 9.2 mph - N/A   Clear
11:54 AM 64.9 °F 43.0 °F 45% 29.90 in 10.0 mi WSW 8.1 mph - N/A   Clear
12:54 PM 66.9 °F 42.1 °F 40% 29.91 in 10.0 mi WSW 9.2 mph - N/A   Clear
1:54 PM 69.1 °F 41.0 °F 36% 29.88 in 10.0 mi SSW 9.2 mph - N/A   Clear
2:54 PM 70.0 °F 37.9 °F 31% 29.87 in 10.0 mi WSW 8.1 mph - N/A   Clear
3:54 PM 71.1 °F 37.9 °F 30% 29.86 in 10.0 mi SSW 6.9 mph - N/A   Clear
4:54 PM 71.1 °F 37.9 °F 30% 29.85 in 10.0 mi SW 8.1 mph - N/A   Clear
5:54 PM 70.0 °F 39.0 °F 32% 29.85 in 10.0 mi SW 5.8 mph - N/A   Clear
6:54 PM 69.1 °F 41.0 °F 36% 29.84 in 10.0 mi Calm Calm - N/A   Clear
7:54 PM 63.0 °F 43.0 °F 48% 29.84 in 10.0 mi Calm Calm - N/A   Clear
8:54 PM 55.9 °F 45.0 °F 67% 29.84 in 10.0 mi ESE 3.5 mph - N/A   Clear
9:54 PM 53.1 °F 44.1 °F 71% 29.83 in 10.0 mi Calm Calm - N/A   Clear
10:54 PM 51.1 °F 45.0 °F 80% 29.83 in 10.0 mi ESE 4.6 mph - N/A   Clear
11:54 PM 51.1 °F 44.1 °F 77% 29.82 in 10.0 mi ESE 5.8 mph - N/A   Clear